Location: Brantley
(31.5822°N, 86.2569°W)
Time: 09:46:39
(UTC+00:00)

Vanguard 2 Rocket - Visible Passes

Search period start: 19 February 2026 00:00
Search period end: 01 March 2026 00:00
Orbit: 553 x 3286 km, 32.9° (Epoch: 18 February)

Date Brightness Start Highest point End Pass type
(mag) Time Alt. Az. Time Alt. Az. Time Alt. Az.
19 Feb 8.9 00:31:57 10° W 00:39:41 30° SW 00:44:41 10° SSE visible
21 Feb 9.3 00:35:11 10° W 00:41:55 22° SW 00:46:38 10° S visible
23 Feb 9.7 00:39:08 10° W 00:44:00 15° SW 00:47:49 10° SSW visible
26 Feb 11.0 11:11:00 10° SE 11:14:38 11° SE 11:18:33 10° ESE visible
28 Feb 10.7 11:08:26 10° SSE 11:16:20 17° SE 11:25:58 10° E visible
